Regional Weather Roundup
Issued by NWS

Home | Current Version | Previous Version | Text Only | Print | Product List | Glossary Off
Versions: 1 2 3 4 5 6 7 8 9 10 11 12 13 14 15 16 17 18 19 20 21 22 23 24 25 26 27 28 29 30 31 32 33 34 35 36 37 38 39 40 41 42 43 44 45 46 47 48 49 50

000
ASUS43 KFSD 171102
RWRSD

WEATHER ROUNDUP FOR SOUTH DAKOTA
NATIONAL WEATHER SERVICE SIOUX FALLS SD
500 AM CST WED JAN 17 2018

NOTE: "FAIR" INDICATES FEW OR NO CLOUDS BELOW 12,000 FEET WITH NO
SIGNIFICANT WEATHER AND/OR OBSTRUCTIONS TO VISIBILITY.


SDZ001>005-009-010-012>017-171200-
NORTHWEST AND NORTH CENTRAL SOUTH DAKOTA

CITY           SKY/WX    TMP DP  RH WIND       PRES   REMARKS
BUFFALO          N/A     17   4  56 W13       30.07S WCI   4
FAITH            N/A     11   2  67 W12       30.15F WCI  -3
MOBRIDGE       PTCLDY     4  -1  80 SE8       30.17F WCI  -9
$$

SDZ012>016-024>037-041>051-057-063-072>074-171200-
SOUTHWEST AND SOUTH CENTRAL SOUTH DAKOTA

CITY           SKY/WX    TMP DP  RH WIND       PRES   REMARKS
RAPID CTY ARPT PTCLDY    20   4  50 NW7       30.15S WCI  11
PIERRE         CLEAR      2  -1  88 CALM      30.23S
CUSTER         PTCLDY    28  -6  22 W5        30.15S WCI  23
ELLSWORTH AFB  PTCLDY    14   5  68 N5        30.14S WCI   6
PHILIP         CLEAR      3   0  87 W6        30.21R WCI  -8
PINE RIDGE     CLEAR     13   4  67 W6        30.21S WCI   4
SPEARFISH        N/A     28   3  34 CALM      30.15F
WINNER         FAIR      19   6  57 SW16      30.23F WCI   4
$$

SDZ004>011-016>023-039-040-171200-
NORTHEAST SOUTH DAKOTA

CITY           SKY/WX    TMP DP  RH WIND       PRES   REMARKS
ABERDEEN       CLEAR      2  -3  80 S12       30.27F WCI -15
WATERTOWN      CLOUDY     4  -1  80 S9        30.26F WCI -10
BROOKINGS      CLOUDY     3  -2  79 S8        30.32F WCI -10
SISSETON         N/A     16   1  51 S8        30.23F WCI   5
$$

SDZ017-020-022-023-036>040-048>070-171200-
SOUTHEAST SOUTH DAKOTA

CITY           SKY/WX    TMP DP  RH WIND       PRES   REMARKS
SIOUX FALLS    CLOUDY     7   1  76 S13       30.37F WCI  -9
HURON          CLEAR      4  -1  80 S10       30.31F WCI -11
CHAMBERLAIN    CLEAR      8   3  80 S6        30.26F WCI  -3
MITCHELL       CLEAR      6   0  76 S8        30.34F WCI  -7
YANKTON        CLOUDY    11   2  67 S9        30.40F WCI  -2
$$

ABBREVIATIONS USED IN REMARKS
   TC - TEMPERATURE IN CELSIUS
  WCI - WIND CHILL INDEX
   HX - HEAT INDEX
  VSB - VISIBILITY




USA.gov is the U.S. government's official web portal to all federal, state and local government web resources and services.